RBO1 KDFW-KMCO

Flight info

Callsign RBO1
Flight time 2h 6m
Altitude 37000
Route FORCK3 FORCK HAWES WINAP ORRKK ARNNY DEEDA GRNCH5
Aircraft B752/M-SDE2E3FGHIJ3J4J7RWXY/LB1

Departure

Time 2026-05-05 00:18
Airport Dallas Fort Worth International Airport (KDFW)

Arrival

Time 2026-05-05 02:24
Airport Orlando International Airport (KMCO)
Time Latitude Longitude Altitude Speed Heading
2026-05-04 23:35 32.88805 -97.03610 572 ft 0 kts 322°
2026-05-05 00:00 32.88784 -97.03590 573 ft 2 kts 322°
2026-05-05 00:00 32.88772 -97.03579 573 ft 2 kts 322°
2026-05-05 00:01 32.88760 -97.03568 573 ft 2 kts 322°
2026-05-05 00:01 32.88749 -97.03558 574 ft 1 kts 323°
2026-05-05 00:01 32.88747 -97.03557 574 ft 0 kts 323°
2026-05-05 00:04 32.88752 -97.03562 573 ft 0 kts 311°
2026-05-05 00:05 32.88754 -97.03565 573 ft 0 kts 307°
2026-05-05 00:06 32.88758 -97.03572 573 ft 3 kts 300°
2026-05-05 00:06 32.88757 -97.03610 573 ft 4 kts 232°
2026-05-05 00:06 32.88727 -97.03606 573 ft 5 kts 150°
2026-05-05 00:06 32.88691 -97.03574 573 ft 8 kts 141°
2026-05-05 00:07 32.88642 -97.03514 574 ft 11 kts 119°
2026-05-05 00:07 32.88609 -97.03408 575 ft 16 kts 92°
2026-05-05 00:07 32.88614 -97.03284 575 ft 16 kts 96°
2026-05-05 00:07 32.88627 -97.03219 575 ft 5 kts 39°
2026-05-05 00:08 32.88673 -97.03202 575 ft 9 kts
2026-05-05 00:08 32.88759 -97.03198 575 ft 16 kts
2026-05-05 00:08 32.88912 -97.03200 575 ft 27 kts
2026-05-05 00:08 32.89119 -97.03198 575 ft 25 kts
2026-05-05 00:09 32.89274 -97.03196 575 ft 20 kts
2026-05-05 00:09 32.89380 -97.03217 576 ft 0 kts 311°
2026-05-05 00:09 32.89385 -97.03225 576 ft 4 kts 301°
2026-05-05 00:10 32.89401 -97.03279 577 ft 9 kts 297°
2026-05-05 00:10 32.89489 -97.03318 578 ft 19 kts 359°
2026-05-05 00:10 32.89662 -97.03319 581 ft 30 kts
2026-05-05 00:10 32.89895 -97.03318 582 ft 28 kts
2026-05-05 00:11 32.90046 -97.03316 583 ft 20 kts
2026-05-05 00:11 32.90155 -97.03316 584 ft 14 kts
2026-05-05 00:11 32.90254 -97.03314 585 ft 13 kts
2026-05-05 00:11 32.90347 -97.03313 586 ft 13 kts
2026-05-05 00:12 32.90442 -97.03312 586 ft 13 kts 359°
2026-05-05 00:12 32.90545 -97.03313 587 ft 16 kts 359°
2026-05-05 00:12 32.90671 -97.03313 590 ft 21 kts
2026-05-05 00:12 32.90854 -97.03312 587 ft 29 kts
2026-05-05 00:13 32.91022 -97.03290 585 ft 22 kts 22°
2026-05-05 00:13 32.91177 -97.03275 583 ft 22 kts
2026-05-05 00:13 32.91321 -97.03273 580 ft 18 kts
2026-05-05 00:13 32.91438 -97.03271 578 ft 11 kts
2026-05-05 00:14 32.91505 -97.03266 577 ft 9 kts 354°
2026-05-05 00:14 32.91556 -97.03232 575 ft 10 kts 72°
2026-05-05 00:14 32.91560 -97.03154 574 ft 9 kts 90°
2026-05-05 00:14 32.91560 -97.03121 574 ft 0 kts 91°
2026-05-05 00:15 32.91560 -97.03120 574 ft 1 kts 91°
2026-05-05 00:15 32.91559 -97.03085 573 ft 6 kts 92°
2026-05-05 00:15 32.91555 -97.03028 572 ft 7 kts 102°
2026-05-05 00:16 32.91524 -97.02992 571 ft 6 kts 161°
2026-05-05 00:16 32.91508 -97.02990 571 ft 0 kts 178°
2026-05-05 00:17 32.91476 -97.02990 572 ft 14 kts 181°
2026-05-05 00:18 32.91029 -97.02993 575 ft 111 kts 180°
2026-05-05 00:18 32.89981 -97.02986 806 ft 174 kts 180°
2026-05-05 00:18 32.88867 -97.02989 2199 ft 168 kts 181°
2026-05-05 00:18 32.87789 -97.02956 3471 ft 153 kts 182°
2026-05-05 00:19 32.86780 -97.02914 4475 ft 149 kts 185°
2026-05-05 00:19 32.85735 -97.02906 5340 ft 163 kts 188°
2026-05-05 00:19 32.84585 -97.02965 6285 ft 172 kts 192°
2026-05-05 00:19 32.83429 -97.03043 7288 ft 177 kts 192°
2026-05-05 00:20 32.82120 -97.03093 8046 ft 199 kts 189°
2026-05-05 00:20 32.80678 -97.03105 8841 ft 219 kts 188°
2026-05-05 00:20 32.79076 -97.03085 9553 ft 244 kts 186°
2026-05-05 00:20 32.77374 -97.03054 10509 ft 251 kts 186°
2026-05-05 00:21 32.75550 -97.03020 11001 ft 275 kts 185°
2026-05-05 00:21 32.73544 -97.02914 11558 ft 300 kts 175°
2026-05-05 00:21 32.71500 -97.02044 11970 ft 332 kts 153°
2026-05-05 00:21 32.69628 -97.00262 12437 ft 358 kts 135°
2026-05-05 00:22 32.68150 -96.97756 12792 ft 383 kts 117°
2026-05-05 00:22 32.67301 -96.94774 13486 ft 390 kts 99°
2026-05-05 00:22 32.67158 -96.91591 14315 ft 391 kts 82°
2026-05-05 00:22 32.67721 -96.88442 15029 ft 392 kts 67°
2026-05-05 00:23 32.68526 -96.85329 15832 ft 397 kts 73°
2026-05-05 00:23 32.69063 -96.82092 16482 ft 406 kts 77°
2026-05-05 00:23 32.69587 -96.78818 17148 ft 409 kts 71°
2026-05-05 00:23 32.70385 -96.75599 17908 ft 410 kts 69°
2026-05-05 00:24 32.71153 -96.72290 18480 ft 421 kts 71°
2026-05-05 00:24 32.71896 -96.68941 19181 ft 426 kts 71°
2026-05-05 00:24 32.72649 -96.65484 19850 ft 434 kts 71°
2026-05-05 00:24 32.73398 -96.62004 20588 ft 440 kts 71°
2026-05-05 00:25 32.74150 -96.58483 21293 ft 445 kts 70°
2026-05-05 00:25 32.74931 -96.54892 21790 ft 456 kts 69°
2026-05-05 00:25 32.75724 -96.51289 22619 ft 457 kts 69°
2026-05-05 00:25 32.76534 -96.47562 23060 ft 469 kts 70°
2026-05-05 00:26 32.77333 -96.43848 23816 ft 471 kts 69°
2026-05-05 00:26 32.78165 -96.40081 24327 ft 476 kts 69°
2026-05-05 00:26 32.78983 -96.36203 24741 ft 485 kts 70°
2026-05-05 00:26 32.79623 -96.32280 25498 ft 490 kts 77°
2026-05-05 00:27 32.80040 -96.28284 25801 ft 499 kts 77°
2026-05-05 00:27 32.80469 -96.24159 26313 ft 500 kts 77°
2026-05-05 00:27 32.80898 -96.20042 26649 ft 507 kts 77°
2026-05-05 00:27 32.81325 -96.15917 27125 ft 509 kts 77°
2026-05-05 00:28 32.81759 -96.11745 27470 ft 514 kts 77°
2026-05-05 00:28 32.82192 -96.07530 28002 ft 514 kts 77°
2026-05-05 00:28 32.82630 -96.03291 28198 ft 523 kts 77°
2026-05-05 00:28 32.83066 -95.99029 28669 ft 524 kts 76°
2026-05-05 00:29 32.83512 -95.94680 28922 ft 531 kts 77°
2026-05-05 00:29 32.83948 -95.90379 29530 ft 529 kts 76°
2026-05-05 00:29 32.84389 -95.86039 29743 ft 536 kts 76°
2026-05-05 00:29 32.84837 -95.81622 30094 ft 539 kts 76°
2026-05-05 00:30 32.85277 -95.77231 30531 ft 541 kts 76°
2026-05-05 00:30 32.85726 -95.72790 30854 ft 544 kts 75°
2026-05-05 00:30 32.86202 -95.68302 31407 ft 541 kts 75°
2026-05-05 00:30 32.86660 -95.63877 31750 ft 544 kts 75°
2026-05-05 00:31 32.87111 -95.59431 32076 ft 547 kts 75°
2026-05-05 00:31 32.87553 -95.54984 32553 ft 545 kts 75°
2026-05-05 00:31 32.87994 -95.50520 33018 ft 544 kts 75°
2026-05-05 00:31 32.88435 -95.46060 33345 ft 545 kts 75°
2026-05-05 00:32 32.88870 -95.41604 33901 ft 543 kts 75°
2026-05-05 00:32 32.89305 -95.37180 34372 ft 542 kts 75°
2026-05-05 00:32 32.89742 -95.32703 34714 ft 543 kts 76°
2026-05-05 00:32 32.90175 -95.28281 35292 ft 538 kts 75°
2026-05-05 00:33 32.90622 -95.23893 35711 ft 536 kts 75°
2026-05-05 00:33 32.91058 -95.19518 36035 ft 537 kts 75°
2026-05-05 00:33 32.91485 -95.15105 36388 ft 537 kts 76°
2026-05-05 00:33 32.91890 -95.10686 36799 ft 537 kts 76°
2026-05-05 00:34 32.92326 -95.06236 36823 ft 546 kts 75°
2026-05-05 00:34 32.93197 -94.97163 36832 ft 562 kts 76°
2026-05-05 00:35 32.94079 -94.87792 36845 ft 577 kts 76°
2026-05-05 00:35 32.94964 -94.78262 36845 ft 586 kts 76°
2026-05-05 00:36 32.95837 -94.68649 36848 ft 584 kts 77°
2026-05-05 00:36 32.96627 -94.59113 36850 ft 579 kts 76°
2026-05-05 00:37 32.97453 -94.49681 36850 ft 574 kts 76°
2026-05-05 00:37 32.98340 -94.40287 36848 ft 569 kts 75°
2026-05-05 00:38 32.99216 -94.30975 36828 ft 566 kts 76°
2026-05-05 00:38 32.99443 -94.21579 36837 ft 570 kts 84°
2026-05-05 00:39 32.99301 -94.12219 36834 ft 566 kts 85°
2026-05-05 00:39 32.99126 -94.02902 36841 ft 562 kts 85°
2026-05-05 00:40 32.98896 -93.93645 36844 ft 559 kts 85°
2026-05-05 00:40 32.98660 -93.84493 36850 ft 555 kts 84°
2026-05-05 00:41 32.98451 -93.75382 36849 ft 552 kts 84°
2026-05-05 00:41 32.98269 -93.66272 36852 ft 549 kts 84°
2026-05-05 00:42 32.98094 -93.57251 36861 ft 547 kts 83°
2026-05-05 00:42 32.97893 -93.48222 36868 ft 544 kts 84°
2026-05-05 00:43 32.97675 -93.39288 36865 ft 543 kts 84°
2026-05-05 00:43 32.97445 -93.30326 36845 ft 540 kts 85°
2026-05-05 00:44 32.97209 -93.21424 36853 ft 537 kts 84°
2026-05-05 00:44 32.96964 -93.12595 36855 ft 535 kts 85°
2026-05-05 00:45 32.96685 -93.03805 36857 ft 532 kts 84°
2026-05-05 00:45 32.96426 -92.95054 36863 ft 529 kts 84°
2026-05-05 00:46 32.96169 -92.86344 36870 ft 527 kts 84°
2026-05-05 00:46 32.95631 -92.77660 36878 ft 530 kts 89°
2026-05-05 00:47 32.94896 -92.68975 36882 ft 528 kts 88°
2026-05-05 00:47 32.94177 -92.60320 36877 ft 527 kts 89°
2026-05-05 00:48 32.93430 -92.51681 36879 ft 526 kts 88°
2026-05-05 00:48 32.92703 -92.43024 36893 ft 525 kts 88°
2026-05-05 00:49 32.91976 -92.34427 36888 ft 525 kts 88°
2026-05-05 00:49 32.91245 -92.25805 36871 ft 523 kts 89°
2026-05-05 00:50 32.90518 -92.17240 36875 ft 520 kts 87°
2026-05-05 00:50 32.89808 -92.08705 36884 ft 519 kts 88°
2026-05-05 00:51 32.89090 -92.00235 36887 ft 517 kts 87°
2026-05-05 00:51 32.88372 -91.91747 36895 ft 516 kts 87°
2026-05-05 00:52 32.87632 -91.83279 36898 ft 515 kts 88°
2026-05-05 00:52 32.86886 -91.74870 36904 ft 514 kts 88°
2026-05-05 00:53 32.86130 -91.66434 36908 ft 513 kts 88°
2026-05-05 00:53 32.85372 -91.58033 36910 ft 513 kts 88°
2026-05-05 00:54 32.84594 -91.49657 36899 ft 513 kts 88°
2026-05-05 00:54 32.83804 -91.41257 36908 ft 512 kts 88°
2026-05-05 00:55 32.83022 -91.32845 36892 ft 512 kts 89°
2026-05-05 00:55 32.82244 -91.24496 36902 ft 513 kts 89°
2026-05-05 00:56 32.81460 -91.16065 36901 ft 517 kts 89°
2026-05-05 00:56 32.80662 -91.07509 36920 ft 528 kts 88°
2026-05-05 00:57 32.79850 -90.98729 36933 ft 539 kts 89°
2026-05-05 00:57 32.78983 -90.89853 36936 ft 551 kts 89°
2026-05-05 00:58 32.78089 -90.80724 36936 ft 562 kts 89°
2026-05-05 00:58 32.77211 -90.71458 36941 ft 573 kts 89°
2026-05-05 00:59 32.76289 -90.61990 36943 ft 584 kts 89°
2026-05-05 00:59 32.75335 -90.52358 36949 ft 585 kts 89°
2026-05-05 01:00 32.74366 -90.42844 36957 ft 584 kts 89°
2026-05-05 01:00 32.73398 -90.33337 36943 ft 583 kts 90°
2026-05-05 01:01 32.72413 -90.23817 36938 ft 578 kts 90°
2026-05-05 01:01 32.71442 -90.14470 36941 ft 569 kts 90°
2026-05-05 01:02 32.70485 -90.05237 36948 ft 561 kts 89°
2026-05-05 01:02 32.69558 -89.96110 36949 ft 553 kts 89°
2026-05-05 01:03 32.68641 -89.87157 36958 ft 546 kts 89°
2026-05-05 01:03 32.67735 -89.78241 36955 ft 540 kts 88°
2026-05-05 01:04 32.66820 -89.69474 36957 ft 534 kts 89°
2026-05-05 01:04 32.65440 -89.56502 36962 ft 526 kts 88°
2026-05-05 01:05 32.64529 -89.48001 36970 ft 522 kts 89°
2026-05-05 01:05 32.63580 -89.39470 36971 ft 517 kts 88°
2026-05-05 01:06 32.62889 -89.31065 36949 ft 508 kts 84°
2026-05-05 01:06 32.62391 -89.22783 36955 ft 503 kts 85°
2026-05-05 01:07 32.61879 -89.14555 36965 ft 498 kts 84°
2026-05-05 01:07 32.61370 -89.06460 36968 ft 493 kts 84°
2026-05-05 01:08 32.60859 -88.98401 36969 ft 489 kts 84°
2026-05-05 01:08 32.60376 -88.90416 36983 ft 490 kts 83°
2026-05-05 01:09 32.59863 -88.82252 36986 ft 502 kts 84°
2026-05-05 01:09 32.59324 -88.73965 36994 ft 514 kts 84°
2026-05-05 01:10 32.58754 -88.65382 36991 ft 526 kts 85°
2026-05-05 01:10 32.58149 -88.56690 36987 ft 538 kts 85°
2026-05-05 01:11 32.57552 -88.47756 36999 ft 549 kts 85°
2026-05-05 01:11 32.56909 -88.38657 37001 ft 561 kts 85°
2026-05-05 01:12 32.56266 -88.29432 36962 ft 571 kts 86°
2026-05-05 01:12 32.55576 -88.19966 36974 ft 580 kts 87°
2026-05-05 01:13 32.54892 -88.10457 36978 ft 588 kts 87°
2026-05-05 01:13 32.54192 -88.00718 36976 ft 597 kts 86°
2026-05-05 01:14 32.52875 -87.90970 36944 ft 603 kts 97°
2026-05-05 01:14 32.51026 -87.81496 36974 ft 584 kts 96°
2026-05-05 01:15 32.49200 -87.72254 36979 ft 568 kts 96°
2026-05-05 01:15 32.47421 -87.63332 36988 ft 554 kts 96°
2026-05-05 01:16 32.45656 -87.54545 36982 ft 542 kts 96°
2026-05-05 01:16 32.43934 -87.45983 36989 ft 531 kts 96°
2026-05-05 01:17 32.42257 -87.37564 36999 ft 522 kts 95°
2026-05-05 01:17 32.40596 -87.29327 36976 ft 513 kts 96°
2026-05-05 01:18 32.38908 -87.21191 36980 ft 504 kts 96°
2026-05-05 01:18 32.37276 -87.13229 36986 ft 496 kts 96°
2026-05-05 01:19 32.35667 -87.05415 37001 ft 488 kts 95°
2026-05-05 01:19 32.33844 -86.97764 37016 ft 490 kts 108°
2026-05-05 01:20 32.31091 -86.90370 37009 ft 491 kts 109°
2026-05-05 01:20 32.28309 -86.83020 37007 ft 496 kts 108°
2026-05-05 01:21 32.25472 -86.75571 37011 ft 501 kts 109°
2026-05-05 01:21 32.22589 -86.68037 37013 ft 505 kts 109°
2026-05-05 01:22 32.19696 -86.60487 37021 ft 510 kts 109°
2026-05-05 01:22 32.16748 -86.52818 37016 ft 514 kts 109°
2026-05-05 01:23 32.13784 -86.45116 37032 ft 519 kts 109°
2026-05-05 01:23 32.10806 -86.37393 37027 ft 523 kts 109°
2026-05-05 01:24 32.07789 -86.29581 37019 ft 526 kts 110°
2026-05-05 01:24 32.04742 -86.21722 37017 ft 529 kts 110°
2026-05-05 01:25 32.01686 -86.13855 37024 ft 531 kts 110°
2026-05-05 01:25 31.98612 -86.05965 37027 ft 533 kts 109°
2026-05-05 01:26 31.95509 -85.98016 37030 ft 535 kts 110°
2026-05-05 01:26 31.92393 -85.90050 37032 ft 538 kts 110°
2026-05-05 01:27 31.89278 -85.82101 37013 ft 539 kts 110°
2026-05-05 01:27 31.86130 -85.74087 37016 ft 540 kts 110°
2026-05-05 01:28 31.82983 -85.66091 37018 ft 540 kts 110°
2026-05-05 01:28 31.79833 -85.58115 37017 ft 541 kts 110°
2026-05-05 01:29 31.76662 -85.50090 37022 ft 542 kts 111°
2026-05-05 01:29 31.73487 -85.42094 37025 ft 542 kts 110°
2026-05-05 01:30 31.70284 -85.34026 37021 ft 543 kts 112°
2026-05-05 01:30 31.67099 -85.26045 37009 ft 543 kts 112°
2026-05-05 01:31 31.63898 -85.18017 37015 ft 543 kts 111°
2026-05-05 01:31 31.60707 -85.10040 37023 ft 538 kts 111°
2026-05-05 01:32 31.57549 -85.02165 37031 ft 530 kts 112°
2026-05-05 01:32 31.54935 -84.94268 37032 ft 518 kts 104°
2026-05-05 01:33 31.52560 -84.86320 37037 ft 512 kts 105°
2026-05-05 01:33 31.50178 -84.78519 37041 ft 507 kts 105°
2026-05-05 01:34 31.48431 -84.70691 37056 ft 490 kts 87°
2026-05-05 01:34 31.48038 -84.62813 37044 ft 491 kts 84°
2026-05-05 01:35 31.47764 -84.54758 37044 ft 496 kts 84°
2026-05-05 01:35 31.47496 -84.46684 37050 ft 501 kts 84°
2026-05-05 01:36 31.47228 -84.38520 37054 ft 505 kts 84°
2026-05-05 01:36 31.46962 -84.30311 37028 ft 510 kts 85°
2026-05-05 01:37 31.46693 -84.21986 37037 ft 513 kts 85°
2026-05-05 01:37 31.46424 -84.13701 37044 ft 515 kts 86°
2026-05-05 01:38 31.45428 -84.05318 37051 ft 526 kts 103°
2026-05-05 01:38 31.42430 -83.97533 37054 ft 529 kts 123°
2026-05-05 01:39 31.37740 -83.90945 37048 ft 526 kts 132°
2026-05-05 01:39 31.33556 -83.84057 37046 ft 523 kts 120°
2026-05-05 01:40 31.29984 -83.76656 37046 ft 521 kts 117°
2026-05-05 01:40 31.26603 -83.69218 37049 ft 519 kts 116°
2026-05-05 01:41 31.23276 -83.61774 37054 ft 517 kts 116°
2026-05-05 01:41 31.19975 -83.54353 37052 ft 516 kts 116°
2026-05-05 01:42 31.16685 -83.46960 37054 ft 515 kts 116°
2026-05-05 01:42 31.13370 -83.39526 37057 ft 514 kts 116°
2026-05-05 01:43 31.10095 -83.32192 37043 ft 513 kts 117°
2026-05-05 01:43 31.06803 -83.24831 37049 ft 511 kts 117°
2026-05-05 01:44 31.03533 -83.17535 37049 ft 509 kts 117°
2026-05-05 01:44 31.00256 -83.10239 37053 ft 508 kts 117°
2026-05-05 01:45 30.96990 -83.02982 37050 ft 506 kts 117°
2026-05-05 01:45 30.93721 -82.95737 37053 ft 504 kts 117°
2026-05-05 01:46 30.90351 -82.88654 37068 ft 502 kts 126°
2026-05-05 01:46 30.85652 -82.82729 37067 ft 495 kts 144°
2026-05-05 01:47 30.80341 -82.77720 37051 ft 493 kts 146°
2026-05-05 01:47 30.74978 -82.72765 37054 ft 492 kts 146°
2026-05-05 01:48 30.69609 -82.67887 37059 ft 491 kts 146°
2026-05-05 01:48 30.64247 -82.63013 37058 ft 490 kts 146°
2026-05-05 01:49 30.58877 -82.58154 37060 ft 489 kts 146°
2026-05-05 01:49 30.53478 -82.53299 37068 ft 489 kts 146°
2026-05-05 01:50 30.48077 -82.48469 37064 ft 490 kts 147°
2026-05-05 01:50 30.42653 -82.43662 37063 ft 492 kts 146°
2026-05-05 01:51 30.37217 -82.38817 37067 ft 494 kts 146°
2026-05-05 01:51 30.31758 -82.33950 37058 ft 496 kts 147°
2026-05-05 01:52 30.26317 -82.29102 37055 ft 496 kts 147°
2026-05-05 01:52 30.20599 -82.24777 37066 ft 485 kts 162°
2026-05-05 01:53 30.14256 -82.22547 37062 ft 471 kts 176°
2026-05-05 01:53 30.07843 -82.21118 37051 ft 470 kts 177°
2026-05-05 01:54 30.01329 -82.19780 36527 ft 483 kts 178°
2026-05-05 01:54 29.98012 -82.19140 36298 ft 487 kts 178°
2026-05-05 01:54 29.94645 -82.18506 36306 ft 487 kts 178°
2026-05-05 01:55 29.87985 -82.17207 36277 ft 482 kts 178°
2026-05-05 01:55 29.84698 -82.16724 36237 ft 467 kts 186°
2026-05-05 01:55 29.81498 -82.16820 36342 ft 454 kts 196°
2026-05-05 01:56 29.75484 -82.18747 35895 ft 454 kts 215°
2026-05-05 01:56 29.72716 -82.20579 35323 ft 461 kts 224°
2026-05-05 01:56 29.70253 -82.22910 34747 ft 469 kts 232°
2026-05-05 01:57 29.67891 -82.25585 34157 ft 487 kts 233°
2026-05-05 01:57 29.65282 -82.28217 33562 ft 513 kts 226°
2026-05-05 01:57 29.62226 -82.30516 32983 ft 530 kts 217°
2026-05-05 01:57 29.58900 -82.32312 32437 ft 537 kts 209°
2026-05-05 01:58 29.55327 -82.33566 31878 ft 529 kts 200°
2026-05-05 01:58 29.51755 -82.34189 31312 ft 521 kts 192°
2026-05-05 01:58 29.48151 -82.34203 30716 ft 511 kts 183°
2026-05-05 01:58 29.44696 -82.33605 30117 ft 490 kts 173°
2026-05-05 01:59 29.41555 -82.32449 29567 ft 472 kts 163°
2026-05-05 01:59 29.38673 -82.30750 28998 ft 457 kts 153°
2026-05-05 01:59 29.36182 -82.28599 28411 ft 445 kts 142°
2026-05-05 01:59 29.34095 -82.26012 26878 ft 457 kts 129°
2026-05-05 02:00 29.32418 -82.22860 25889 ft 461 kts 116°
2026-05-05 02:00 29.31278 -82.19511 25362 ft 452 kts 106°
2026-05-05 02:00 29.30701 -82.16067 25200 ft 434 kts 99°
2026-05-05 02:00 29.29913 -82.12753 24387 ft 435 kts 113°
2026-05-05 02:01 29.28474 -82.09698 23362 ft 436 kts 129°
2026-05-05 02:01 29.26472 -82.07202 22770 ft 424 kts 143°
2026-05-05 02:01 29.24067 -82.05365 22156 ft 409 kts 159°
2026-05-05 02:01 29.21446 -82.04209 21496 ft 399 kts 165°
2026-05-05 02:02 29.18929 -82.02869 20898 ft 399 kts 153°
2026-05-05 02:02 29.16656 -82.01099 20161 ft 400 kts 146°
2026-05-05 02:02 29.14537 -81.99098 19965 ft 382 kts 142°
2026-05-05 02:02 29.12616 -81.97144 19976 ft 362 kts 140°
2026-05-05 02:03 29.10833 -81.95223 19968 ft 343 kts 139°
2026-05-05 02:03 29.09150 -81.93364 19976 ft 337 kts 139°
2026-05-05 02:03 29.07433 -81.91446 19996 ft 355 kts 139°
2026-05-05 02:03 29.05580 -81.89425 19915 ft 377 kts 140°
2026-05-05 02:04 29.03635 -81.87357 19888 ft 396 kts 140°
2026-05-05 02:04 29.01582 -81.85162 19771 ft 416 kts 139°
2026-05-05 02:04 28.99410 -81.82838 19340 ft 436 kts 139°
2026-05-05 02:04 28.97324 -81.80260 18876 ft 447 kts 130°
2026-05-05 02:05 28.95427 -81.77454 18385 ft 442 kts 129°
2026-05-05 02:05 28.93564 -81.74716 17844 ft 429 kts 129°
2026-05-05 02:05 28.91784 -81.72097 17380 ft 413 kts 129°
2026-05-05 02:05 28.90069 -81.69569 16883 ft 400 kts 129°
2026-05-05 02:06 28.88394 -81.67095 16400 ft 390 kts 129°
2026-05-05 02:06 28.86756 -81.64674 15946 ft 381 kts 129°
2026-05-05 02:06 28.85142 -81.62289 15459 ft 374 kts 129°
2026-05-05 02:06 28.83568 -81.59963 14978 ft 368 kts 128°
2026-05-05 02:07 28.82024 -81.57680 14501 ft 363 kts 128°
2026-05-05 02:07 28.80473 -81.55454 14009 ft 356 kts 134°
2026-05-05 02:07 28.78603 -81.53687 13536 ft 343 kts 150°
2026-05-05 02:07 28.76535 -81.52377 13038 ft 335 kts 152°
2026-05-05 02:08 28.74495 -81.51111 12550 ft 330 kts 152°
2026-05-05 02:08 28.72510 -81.49897 12068 ft 322 kts 153°
2026-05-05 02:08 28.70536 -81.48700 11380 ft 319 kts 153°
2026-05-05 02:08 28.68594 -81.47530 10658 ft 317 kts 153°
2026-05-05 02:09 28.66650 -81.46361 9933 ft 315 kts 154°
2026-05-05 02:09 28.64731 -81.45210 9289 ft 310 kts 154°
2026-05-05 02:09 28.62879 -81.44099 9248 ft 287 kts 154°
2026-05-05 02:09 28.61142 -81.43082 9062 ft 276 kts 160°
2026-05-05 02:10 28.59312 -81.42625 8895 ft 262 kts 176°
2026-05-05 02:10 28.57544 -81.42412 8867 ft 249 kts 176°
2026-05-05 02:10 28.55891 -81.42543 8890 ft 232 kts 203°
2026-05-05 02:10 28.54576 -81.43481 8902 ft 218 kts 231°
2026-05-05 02:11 28.53834 -81.44919 8905 ft 213 kts 256°
2026-05-05 02:11 28.53731 -81.46572 8917 ft 218 kts 281°
2026-05-05 02:11 28.54322 -81.48203 8918 ft 229 kts 307°
2026-05-05 02:11 28.55555 -81.49381 8917 ft 240 kts 334°
2026-05-05 02:12 28.57221 -81.49831 8912 ft 250 kts 352°
2026-05-05 02:12 28.60781 -81.50217 8886 ft 261 kts 352°
2026-05-05 02:12 28.62589 -81.50418 8884 ft 264 kts 352°
2026-05-05 02:13 28.64445 -81.50509 8888 ft 264 kts
2026-05-05 02:13 28.66090 -81.49709 8908 ft 263 kts 38°
2026-05-05 02:13 28.67268 -81.48031 8445 ft 281 kts 66°
2026-05-05 02:13 28.67621 -81.45871 8191 ft 283 kts 95°
2026-05-05 02:14 28.67047 -81.43788 8191 ft 273 kts 124°
2026-05-05 02:14 28.65735 -81.42298 8224 ft 264 kts 150°
2026-05-05 02:14 28.64024 -81.41575 8067 ft 263 kts 172°
2026-05-05 02:14 28.62165 -81.41202 7645 ft 276 kts 169°
2026-05-05 02:15 28.60254 -81.40717 7234 ft 292 kts 168°
2026-05-05 02:15 28.58251 -81.40150 6790 ft 291 kts 166°
2026-05-05 02:15 28.56326 -81.39665 6361 ft 284 kts 172°
2026-05-05 02:15 28.54361 -81.39346 5929 ft 279 kts 172°
2026-05-05 02:16 28.52463 -81.39064 5545 ft 271 kts 172°
2026-05-05 02:16 28.50619 -81.38818 5105 ft 266 kts 172°
2026-05-05 02:16 28.48793 -81.38605 4661 ft 259 kts 173°
2026-05-05 02:16 28.47013 -81.38409 4216 ft 254 kts 173°
2026-05-05 02:17 28.45272 -81.38232 3963 ft 242 kts 173°
2026-05-05 02:17 28.43668 -81.38090 3957 ft 224 kts 173°
2026-05-05 02:17 28.42151 -81.37960 3960 ft 211 kts 173°
2026-05-05 02:17 28.40722 -81.37838 3962 ft 200 kts 172°
2026-05-05 02:18 28.39353 -81.37727 3962 ft 191 kts 172°
2026-05-05 02:18 28.38029 -81.37618 3883 ft 195 kts 173°
2026-05-05 02:18 28.36629 -81.37500 3790 ft 212 kts 172°
2026-05-05 02:18 28.35100 -81.37379 3685 ft 226 kts 172°
2026-05-05 02:19 28.33655 -81.37263 3586 ft 236 kts 172°
2026-05-05 02:19 28.31923 -81.37128 3488 ft 243 kts 173°
2026-05-05 02:19 28.30236 -81.36933 3475 ft 243 kts 162°
2026-05-05 02:19 28.28792 -81.36042 3434 ft 240 kts 134°
2026-05-05 02:20 28.27947 -81.34470 3080 ft 224 kts 105°
2026-05-05 02:20 28.27974 -81.32821 2622 ft 208 kts 73°
2026-05-05 02:20 28.28727 -81.31538 2465 ft 184 kts 52°
2026-05-05 02:20 28.29526 -81.30544 2444 ft 159 kts 52°
2026-05-05 02:21 28.30247 -81.29645 2461 ft 147 kts 52°
2026-05-05 02:21 28.30904 -81.28841 2461 ft 130 kts 52°
2026-05-05 02:21 28.31628 -81.28307 2426 ft 125 kts 20°
2026-05-05 02:21 28.32590 -81.28233 2271 ft 160 kts
2026-05-05 02:22 28.33706 -81.28259 2264 ft 157 kts
2026-05-05 02:22 28.34799 -81.28274 2151 ft 154 kts
2026-05-05 02:22 28.35803 -81.28275 2025 ft 137 kts
2026-05-05 02:22 28.36737 -81.28288 1654 ft 133 kts
2026-05-05 02:23 28.37657 -81.28301 1438 ft 134 kts
2026-05-05 02:23 28.38606 -81.28274 1236 ft 136 kts
2026-05-05 02:23 28.39586 -81.28247 923 ft 146 kts
2026-05-05 02:23 28.40604 -81.28233 543 ft 145 kts
2026-05-05 02:24 28.41576 -81.28241 247 ft 134 kts
2026-05-05 02:24 28.42489 -81.28245 92 ft 125 kts
2026-05-05 02:24 28.43156 -81.28243 90 ft 61 kts 360°
2026-05-05 02:24 28.43466 -81.28282 89 ft 32 kts 341°
2026-05-05 02:25 28.43516 -81.28390 90 ft 7 kts 163°
2026-05-05 02:25 28.43511 -81.28383 90 ft 0 kts 97°
2026-05-05 02:25 28.43482 -81.28369 89 ft 12 kts 179°
2026-05-05 02:26 28.43337 -81.28368 89 ft 29 kts 179°
2026-05-05 02:26 28.43115 -81.28366 89 ft 33 kts 179°
2026-05-05 02:26 28.42906 -81.28362 88 ft 21 kts 182°
2026-05-05 02:26 28.42751 -81.28365 88 ft 22 kts 179°
2026-05-05 02:27 28.42589 -81.28362 89 ft 16 kts 180°
2026-05-05 02:27 28.42511 -81.28412 89 ft 13 kts 242°
2026-05-05 02:27 28.42470 -81.28518 87 ft 16 kts 250°
2026-05-05 02:27 28.42431 -81.28644 86 ft 17 kts 251°
2026-05-05 02:28 28.42389 -81.28781 86 ft 19 kts 251°
2026-05-05 02:28 28.42341 -81.28931 86 ft 20 kts 250°
2026-05-05 02:28 28.42296 -81.29091 86 ft 21 kts 257°
2026-05-05 02:28 28.42283 -81.29263 88 ft 22 kts 268°
2026-05-05 02:29 28.42282 -81.29439 89 ft 22 kts 271°
2026-05-05 02:29 28.42283 -81.29622 89 ft 23 kts 270°
2026-05-05 02:29 28.42310 -81.29779 92 ft 13 kts 335°
2026-05-05 02:29 28.42398 -81.29795 91 ft 12 kts
2026-05-05 02:30 28.42494 -81.29792 90 ft 14 kts
2026-05-05 02:30 28.42602 -81.29798 89 ft 16 kts 356°
2026-05-05 02:30 28.42719 -81.29799 90 ft 16 kts
2026-05-05 02:30 28.42836 -81.29797 93 ft 16 kts
2026-05-05 02:31 28.42956 -81.29797 93 ft 17 kts
2026-05-05 02:31 28.43082 -81.29799 93 ft 18 kts 359°
2026-05-05 02:31 28.43215 -81.29800 93 ft 19 kts 356°
2026-05-05 02:31 28.43357 -81.29803 93 ft 20 kts
2026-05-05 02:32 28.43503 -81.29804 93 ft 20 kts 358°
2026-05-05 02:32 28.43655 -81.29806 93 ft 22 kts
2026-05-05 02:32 28.43795 -81.29851 93 ft 21 kts 328°
2026-05-05 02:32 28.43886 -81.29983 93 ft 20 kts 290°
2026-05-05 02:33 28.43901 -81.30148 93 ft 21 kts 272°
2026-05-05 02:33 28.43907 -81.30325 93 ft 23 kts 272°
2026-05-05 02:33 28.43917 -81.30515 91 ft 25 kts 274°